Year,Month,Day,Hour,Minute,Value (Times are PST for temperature in C)
2020,04,17,00,00,7.70
2020,04,17,00,01,7.80
2020,04,17,00,02,7.80
2020,04,17,00,03,7.90
2020,04,17,00,04,8.00
2020,04,17,00,05,8.00
2020,04,17,00,06,8.00
2020,04,17,00,07,7.90
2020,04,17,00,08,7.90
2020,04,17,00,09,7.80
2020,04,17,00,10,7.80
2020,04,17,00,11,7.70
2020,04,17,00,12,7.60
2020,04,17,00,13,7.50
2020,04,17,00,14,7.40
2020,04,17,00,15,7.30
2020,04,17,00,16,7.30
2020,04,17,00,17,7.20
2020,04,17,00,18,7.10
2020,04,17,00,19,7.10
2020,04,17,00,20,7.00
2020,04,17,00,21,7.00
2020,04,17,00,22,6.90
2020,04,17,00,23,6.90
2020,04,17,00,24,6.80
2020,04,17,00,25,6.80
2020,04,17,00,26,6.80
2020,04,17,00,27,6.80
2020,04,17,00,28,6.80
2020,04,17,00,29,6.80
2020,04,17,00,30,6.80
2020,04,17,00,31,6.80
2020,04,17,00,32,6.80
2020,04,17,00,33,6.80
2020,04,17,00,34,6.90
2020,04,17,00,35,6.90
2020,04,17,00,36,6.90
2020,04,17,00,37,6.90
2020,04,17,00,38,6.80
2020,04,17,00,39,6.80
2020,04,17,00,40,6.80
2020,04,17,00,41,6.80
2020,04,17,00,42,6.80
2020,04,17,00,43,6.80
2020,04,17,00,44,6.80
2020,04,17,00,45,6.80
2020,04,17,00,46,6.80
2020,04,17,00,47,6.80
2020,04,17,00,48,6.70
2020,04,17,00,49,6.70
2020,04,17,00,50,6.70
2020,04,17,00,51,6.70
2020,04,17,00,52,6.70
2020,04,17,00,53,6.70
2020,04,17,00,54,6.70
2020,04,17,00,55,6.70
2020,04,17,00,56,6.70
2020,04,17,00,57,6.70
2020,04,17,00,58,6.70
2020,04,17,00,59,6.70
2020,04,17,01,00,6.70
2020,04,17,01,01,6.70
2020,04,17,01,02,6.60
2020,04,17,01,03,6.60
2020,04,17,01,04,6.60
2020,04,17,01,05,6.60
2020,04,17,01,06,6.60
2020,04,17,01,07,6.60
2020,04,17,01,08,6.60
2020,04,17,01,09,6.60
2020,04,17,01,10,6.60
2020,04,17,01,11,6.60
2020,04,17,01,12,6.60
2020,04,17,01,13,6.60
2020,04,17,01,14,6.60
2020,04,17,01,15,6.60
2020,04,17,01,16,6.60
2020,04,17,01,17,6.60
2020,04,17,01,18,6.60
2020,04,17,01,19,6.60
2020,04,17,01,20,6.60
2020,04,17,01,21,6.60
2020,04,17,01,22,6.70
2020,04,17,01,23,6.70
2020,04,17,01,24,6.70
2020,04,17,01,25,6.70
2020,04,17,01,26,6.70
2020,04,17,01,27,6.80
2020,04,17,01,28,6.80
2020,04,17,01,29,6.80
2020,04,17,01,30,6.80
2020,04,17,01,31,6.80
2020,04,17,01,32,6.80
2020,04,17,01,33,6.80
2020,04,17,01,34,6.80
2020,04,17,01,35,6.80
2020,04,17,01,36,6.80
2020,04,17,01,37,6.80
2020,04,17,01,38,6.80
2020,04,17,01,39,6.80
2020,04,17,01,40,6.80
2020,04,17,01,41,6.70
2020,04,17,01,42,6.70
2020,04,17,01,43,6.70
2020,04,17,01,44,6.70
2020,04,17,01,45,6.70
2020,04,17,01,46,6.70
2020,04,17,01,47,6.70
2020,04,17,01,48,6.70
2020,04,17,01,49,6.80
2020,04,17,01,50,6.80
2020,04,17,01,51,6.80
2020,04,17,01,52,6.90
2020,04,17,01,53,6.90
2020,04,17,01,54,7.00
2020,04,17,01,55,7.00
2020,04,17,01,56,7.00
2020,04,17,01,57,7.00
2020,04,17,01,58,7.00
2020,04,17,01,59,7.00
2020,04,17,02,00,7.00
2020,04,17,02,01,7.00
2020,04,17,02,02,6.90
2020,04,17,02,03,6.90
2020,04,17,02,04,6.90
2020,04,17,02,05,6.80
2020,04,17,02,06,6.80
2020,04,17,02,07,6.80
2020,04,17,02,08,6.80
2020,04,17,02,09,6.80
2020,04,17,02,10,6.70
2020,04,17,02,11,6.70
2020,04,17,02,12,6.70
2020,04,17,02,13,6.70
2020,04,17,02,14,6.80
2020,04,17,02,15,6.80
2020,04,17,02,16,6.80
2020,04,17,02,17,6.90
2020,04,17,02,18,6.90
2020,04,17,02,19,7.00
2020,04,17,02,20,7.00
2020,04,17,02,21,7.10
2020,04,17,02,22,7.10
2020,04,17,02,23,7.20
2020,04,17,02,24,7.30
2020,04,17,02,25,7.30
2020,04,17,02,26,7.40
2020,04,17,02,27,7.40
2020,04,17,02,28,7.40
2020,04,17,02,29,7.50
2020,04,17,02,30,7.50
2020,04,17,02,31,7.50
2020,04,17,02,32,7.50
2020,04,17,02,33,7.50
2020,04,17,02,34,7.50
2020,04,17,02,35,7.50
2020,04,17,02,36,7.50
2020,04,17,02,37,7.50
2020,04,17,02,38,7.50
2020,04,17,02,39,7.50
2020,04,17,02,40,7.50
2020,04,17,02,41,7.50
2020,04,17,02,42,7.50
2020,04,17,02,43,7.60
2020,04,17,02,44,7.60
2020,04,17,02,45,7.70
2020,04,17,02,46,7.80
2020,04,17,02,47,7.80
2020,04,17,02,48,7.90
2020,04,17,02,49,7.90
2020,04,17,02,50,8.00
2020,04,17,02,51,8.00
2020,04,17,02,52,8.10
2020,04,17,02,53,8.10
2020,04,17,02,54,8.10
2020,04,17,02,55,8.10
2020,04,17,02,56,8.10
2020,04,17,02,57,8.10
2020,04,17,02,58,8.10
2020,04,17,02,59,8.10
2020,04,17,03,00,8.10
2020,04,17,03,01,8.00
2020,04,17,03,02,8.00
2020,04,17,03,03,8.00
2020,04,17,03,04,8.00
2020,04,17,03,05,7.90
2020,04,17,03,06,7.90
2020,04,17,03,07,7.80
2020,04,17,03,08,7.80
2020,04,17,03,09,7.80
2020,04,17,03,10,7.80
2020,04,17,03,11,7.70
2020,04,17,03,12,7.70
2020,04,17,03,13,7.60
2020,04,17,03,14,7.60
2020,04,17,03,15,7.50
2020,04,17,03,16,7.50
2020,04,17,03,17,7.40
2020,04,17,03,18,7.40
2020,04,17,03,19,7.30
2020,04,17,03,20,7.30
2020,04,17,03,21,7.30
2020,04,17,03,22,7.20
2020,04,17,03,23,7.20
2020,04,17,03,24,7.10
2020,04,17,03,25,7.10
2020,04,17,03,26,7.10
2020,04,17,03,27,7.00
2020,04,17,03,28,7.00
2020,04,17,03,29,7.00
2020,04,17,03,30,6.90
2020,04,17,03,31,6.90
2020,04,17,03,32,6.90
2020,04,17,03,33,6.90
2020,04,17,03,34,6.90
2020,04,17,03,35,6.90
2020,04,17,03,36,6.90
2020,04,17,03,37,6.90
2020,04,17,03,38,6.90
2020,04,17,03,39,6.90
2020,04,17,03,40,6.90
2020,04,17,03,41,6.90
2020,04,17,03,42,6.90
2020,04,17,03,43,6.90
2020,04,17,03,44,6.90
2020,04,17,03,45,6.90
2020,04,17,03,46,6.90
2020,04,17,03,47,6.90
2020,04,17,03,48,6.90
2020,04,17,03,49,6.90
2020,04,17,03,50,6.90
2020,04,17,03,51,6.90
2020,04,17,03,52,6.90
2020,04,17,03,53,6.90
2020,04,17,03,54,7.00
2020,04,17,03,55,7.00
2020,04,17,03,56,7.00
2020,04,17,03,57,7.10
2020,04,17,03,58,7.10
2020,04,17,03,59,7.20
2020,04,17,04,00,7.20
2020,04,17,04,01,7.30
2020,04,17,04,02,7.30
2020,04,17,04,03,7.30
2020,04,17,04,04,7.20
2020,04,17,04,05,7.20
2020,04,17,04,06,7.10
2020,04,17,04,07,7.10
2020,04,17,04,08,7.00
2020,04,17,04,09,7.00
2020,04,17,04,10,6.90
2020,04,17,04,11,6.80
2020,04,17,04,12,6.80
2020,04,17,04,13,6.70
2020,04,17,04,14,6.70
2020,04,17,04,15,6.60
2020,04,17,04,16,6.50
2020,04,17,04,17,6.40
2020,04,17,04,18,6.40
2020,04,17,04,19,6.30
2020,04,17,04,20,6.30
2020,04,17,04,21,6.20
2020,04,17,04,22,6.20
2020,04,17,04,23,6.20
2020,04,17,04,24,6.20
2020,04,17,04,25,6.10
2020,04,17,04,26,6.10
2020,04,17,04,27,6.10
2020,04,17,04,28,6.10
2020,04,17,04,29,6.10
2020,04,17,04,30,6.10
2020,04,17,04,31,6.10
2020,04,17,04,32,6.20
2020,04,17,04,33,6.20
2020,04,17,04,34,6.20
2020,04,17,04,35,6.20
2020,04,17,04,36,6.20
2020,04,17,04,37,6.20
2020,04,17,04,38,6.20
2020,04,17,04,39,6.20
2020,04,17,04,40,6.20
2020,04,17,04,41,6.20
2020,04,17,04,42,6.20
2020,04,17,04,43,6.20
2020,04,17,04,44,6.20
2020,04,17,04,45,6.20
2020,04,17,04,46,6.20
2020,04,17,04,47,6.20
2020,04,17,04,48,6.20
2020,04,17,04,49,6.20
2020,04,17,04,50,6.20
2020,04,17,04,51,6.20
2020,04,17,04,52,6.20
2020,04,17,04,53,6.20
2020,04,17,04,54,6.20
2020,04,17,04,55,6.20
2020,04,17,04,56,6.20
2020,04,17,04,57,6.20
2020,04,17,04,58,6.20
2020,04,17,04,59,6.20
2020,04,17,05,00,6.20
2020,04,17,05,01,6.20
2020,04,17,05,02,6.20
2020,04,17,05,03,6.20
2020,04,17,05,04,6.20
2020,04,17,05,05,6.10
2020,04,17,05,06,6.10
2020,04,17,05,07,6.10
2020,04,17,05,08,6.10
2020,04,17,05,09,6.00
2020,04,17,05,10,6.00
2020,04,17,05,11,6.00
2020,04,17,05,12,5.90
2020,04,17,05,13,5.80
2020,04,17,05,14,5.80
2020,04,17,05,15,5.70
2020,04,17,05,16,5.70
2020,04,17,05,17,5.70
2020,04,17,05,18,5.60
2020,04,17,05,19,5.60
2020,04,17,05,20,5.50
2020,04,17,05,21,5.50
2020,04,17,05,22,5.50
2020,04,17,05,23,5.40
2020,04,17,05,24,5.40
2020,04,17,05,25,5.40
2020,04,17,05,26,5.30
2020,04,17,05,27,5.30
2020,04,17,05,28,5.30
2020,04,17,05,29,5.30
2020,04,17,05,30,5.30
2020,04,17,05,31,5.30
2020,04,17,05,32,5.20
2020,04,17,05,33,5.20
2020,04,17,05,34,5.20
2020,04,17,05,35,5.20
2020,04,17,05,36,5.20
2020,04,17,05,37,5.10
2020,04,17,05,38,5.10
2020,04,17,05,39,5.10
2020,04,17,05,40,5.10
2020,04,17,05,41,5.10
2020,04,17,05,42,5.10
2020,04,17,05,43,5.10
2020,04,17,05,44,5.10
2020,04,17,05,45,5.10
2020,04,17,05,46,5.10
2020,04,17,05,47,5.10
2020,04,17,05,48,5.10
2020,04,17,05,49,5.10
2020,04,17,05,50,5.10
2020,04,17,05,51,5.20
2020,04,17,05,52,5.20
2020,04,17,05,53,5.20
2020,04,17,05,54,5.30
2020,04,17,05,55,5.30
2020,04,17,05,56,5.30
2020,04,17,05,57,5.30
2020,04,17,05,58,5.30
2020,04,17,05,59,5.30
2020,04,17,06,00,5.30
2020,04,17,06,01,5.30
2020,04,17,06,02,5.30
2020,04,17,06,03,5.30
2020,04,17,06,04,5.20
2020,04,17,06,05,5.20
2020,04,17,06,06,5.20
2020,04,17,06,07,5.20
2020,04,17,06,08,5.20
2020,04,17,06,09,5.20
2020,04,17,06,10,5.20
2020,04,17,06,11,5.10
2020,04,17,06,12,5.10
2020,04,17,06,13,5.20
2020,04,17,06,14,5.20
2020,04,17,06,15,5.20
2020,04,17,06,16,5.20
2020,04,17,06,17,5.20
2020,04,17,06,18,5.20
2020,04,17,06,19,5.20
2020,04,17,06,20,5.20
2020,04,17,06,21,5.30
2020,04,17,06,22,5.30
2020,04,17,06,23,5.20
2020,04,17,06,24,5.20
2020,04,17,06,25,5.20
2020,04,17,06,26,5.10
2020,04,17,06,27,5.10
2020,04,17,06,28,5.10
2020,04,17,06,29,5.10
2020,04,17,06,30,5.10
2020,04,17,06,31,5.00
2020,04,17,06,32,4.90
2020,04,17,06,33,4.90
2020,04,17,06,34,4.90
2020,04,17,06,35,4.90
2020,04,17,06,36,4.90
2020,04,17,06,37,4.90
2020,04,17,06,38,4.90
2020,04,17,06,39,4.90
2020,04,17,06,40,4.90
2020,04,17,06,41,4.80
2020,04,17,06,42,4.80
2020,04,17,06,43,4.80
2020,04,17,06,44,4.80
2020,04,17,06,45,4.80
2020,04,17,06,46,4.80
2020,04,17,06,47,4.80
2020,04,17,06,48,4.80
2020,04,17,06,49,4.80
2020,04,17,06,50,4.80
2020,04,17,06,51,4.80
2020,04,17,06,52,4.80
2020,04,17,06,53,4.80
2020,04,17,06,54,4.80
2020,04,17,06,55,4.80
2020,04,17,06,56,4.80
2020,04,17,06,57,4.80
2020,04,17,06,58,4.80
2020,04,17,06,59,4.80
2020,04,17,07,00,4.80
2020,04,17,07,01,4.80
2020,04,17,07,02,4.80
2020,04,17,07,03,4.80
2020,04,17,07,04,4.90
2020,04,17,07,05,4.90
2020,04,17,07,06,4.90
2020,04,17,07,07,4.90
2020,04,17,07,08,4.90
2020,04,17,07,09,4.90
2020,04,17,07,10,4.90
2020,04,17,07,11,4.90
2020,04,17,07,12,4.90
2020,04,17,07,13,4.90
2020,04,17,07,14,4.90
2020,04,17,07,15,4.90
2020,04,17,07,16,4.90
2020,04,17,07,17,4.90
2020,04,17,07,18,4.90
2020,04,17,07,19,4.90
2020,04,17,07,20,4.90
2020,04,17,07,21,4.90
2020,04,17,07,22,4.90
2020,04,17,07,23,4.90
2020,04,17,07,24,4.90
2020,04,17,07,25,5.00
2020,04,17,07,26,5.10
2020,04,17,07,27,5.10
2020,04,17,07,28,5.10
2020,04,17,07,29,5.10
2020,04,17,07,30,5.10
2020,04,17,07,31,5.10
2020,04,17,07,32,5.10
2020,04,17,07,33,5.10
2020,04,17,07,34,5.10
2020,04,17,07,35,5.10
2020,04,17,07,36,5.10
2020,04,17,07,37,5.10
2020,04,17,07,38,5.10
2020,04,17,07,39,5.20
2020,04,17,07,40,5.20
2020,04,17,07,41,5.20
2020,04,17,07,42,5.20
2020,04,17,07,43,5.30
2020,04,17,07,44,5.30
2020,04,17,07,45,5.30
2020,04,17,07,46,5.30
2020,04,17,07,47,5.40
2020,04,17,07,48,5.40
2020,04,17,07,49,5.40
2020,04,17,07,50,5.50
2020,04,17,07,51,5.50
2020,04,17,07,52,5.60
2020,04,17,07,53,5.60
2020,04,17,07,54,5.60
2020,04,17,07,55,5.70
2020,04,17,07,56,5.70
2020,04,17,07,57,5.70
2020,04,17,07,58,5.70
2020,04,17,07,59,5.70
2020,04,17,08,00,5.80
2020,04,17,08,01,5.80
2020,04,17,08,02,5.90
2020,04,17,08,03,5.90
2020,04,17,08,04,6.00
2020,04,17,08,05,6.00
2020,04,17,08,06,6.10
2020,04,17,08,07,6.20
2020,04,17,08,08,6.20
2020,04,17,08,09,6.30
2020,04,17,08,10,6.40
2020,04,17,08,11,6.50
2020,04,17,08,12,6.60
2020,04,17,08,13,6.70
2020,04,17,08,14,6.80
2020,04,17,08,15,6.90
2020,04,17,08,16,7.00
2020,04,17,08,17,7.10
2020,04,17,08,18,7.20
2020,04,17,08,19,7.30
2020,04,17,08,20,7.40
2020,04,17,08,21,7.50
2020,04,17,08,22,7.50
2020,04,17,08,23,7.60
2020,04,17,08,24,7.70
2020,04,17,08,25,7.70
2020,04,17,08,26,7.80
2020,04,17,08,27,7.80
2020,04,17,08,28,7.90
2020,04,17,08,29,7.90
2020,04,17,08,30,8.00
2020,04,17,08,31,8.00
2020,04,17,08,32,8.10
2020,04,17,08,33,8.20
2020,04,17,08,34,8.20
2020,04,17,08,35,8.30
2020,04,17,08,36,8.40
2020,04,17,08,37,8.50
2020,04,17,08,38,8.60
2020,04,17,08,39,8.70
2020,04,17,08,40,8.80
2020,04,17,08,41,8.90
2020,04,17,08,42,9.00
2020,04,17,08,43,9.10
2020,04,17,08,44,9.20
2020,04,17,08,45,9.30
2020,04,17,08,46,9.40
2020,04,17,08,47,9.50
2020,04,17,08,48,9.60
2020,04,17,08,49,9.70
2020,04,17,08,50,9.80
2020,04,17,08,51,9.90
2020,04,17,08,52,10.00
2020,04,17,08,53,10.10
2020,04,17,08,54,10.10
2020,04,17,08,55,10.20
2020,04,17,08,56,10.30
2020,04,17,08,57,10.40
2020,04,17,08,58,10.50
2020,04,17,08,59,10.60
2020,04,17,09,00,10.60
2020,04,17,09,01,10.70
2020,04,17,09,02,10.80
2020,04,17,09,03,10.90
2020,04,17,09,04,11.00
2020,04,17,09,05,11.20
2020,04,17,09,06,11.30
2020,04,17,09,07,11.40
2020,04,17,09,08,11.60
2020,04,17,09,09,11.70
2020,04,17,09,10,11.80
2020,04,17,09,11,11.80
2020,04,17,09,12,12.00
2020,04,17,09,13,12.00
2020,04,17,09,14,12.10
2020,04,17,09,15,12.20
2020,04,17,09,16,12.30
2020,04,17,09,17,12.30
2020,04,17,09,18,12.40
2020,04,17,09,19,12.40
2020,04,17,09,20,12.50
2020,04,17,09,21,12.60
2020,04,17,09,22,12.70
2020,04,17,09,23,12.70
2020,04,17,09,24,12.80
2020,04,17,09,25,12.80
2020,04,17,09,26,12.90
2020,04,17,09,27,13.00
2020,04,17,09,28,13.10
2020,04,17,09,29,13.10
2020,04,17,09,30,13.20
2020,04,17,09,31,13.20
2020,04,17,09,32,13.30
2020,04,17,09,33,13.30
2020,04,17,09,34,13.30
2020,04,17,09,35,13.30
2020,04,17,09,36,13.40
2020,04,17,09,37,13.50
2020,04,17,09,38,13.50
2020,04,17,09,39,13.60
2020,04,17,09,40,13.70
2020,04,17,09,41,13.80
2020,04,17,09,42,13.80
2020,04,17,09,43,13.90
2020,04,17,09,44,13.90
2020,04,17,09,45,14.00
2020,04,17,09,46,14.00
2020,04,17,09,47,14.10
2020,04,17,09,48,14.20
2020,04,17,09,49,14.20
2020,04,17,09,50,14.20
2020,04,17,09,51,14.20
2020,04,17,09,52,14.20
2020,04,17,09,53,14.30
2020,04,17,09,54,14.30
2020,04,17,09,55,14.40
2020,04,17,09,56,14.40
2020,04,17,09,57,14.40
2020,04,17,09,58,14.40
2020,04,17,09,59,14.50
2020,04,17,10,00,14.50
2020,04,17,10,01,14.60
2020,04,17,10,02,14.60
2020,04,17,10,03,14.70
2020,04,17,10,04,14.70
2020,04,17,10,05,14.80
2020,04,17,10,06,14.80
2020,04,17,10,07,14.80
2020,04,17,10,08,14.80
2020,04,17,10,09,14.90
2020,04,17,10,10,14.90
2020,04,17,10,11,14.90
2020,04,17,10,12,15.00
2020,04,17,10,13,15.00
2020,04,17,10,14,15.00
2020,04,17,10,15,14.90
2020,04,17,10,16,14.90
2020,04,17,10,17,14.80
2020,04,17,10,18,14.80
2020,04,17,10,19,14.80
2020,04,17,10,20,14.80
2020,04,17,10,21,14.80
2020,04,17,10,22,14.90
2020,04,17,10,23,14.90
2020,04,17,10,24,15.00
2020,04,17,10,25,15.10
2020,04,17,10,26,15.10
2020,04,17,10,27,15.20
2020,04,17,10,28,15.20
2020,04,17,10,29,15.30
2020,04,17,10,30,15.30
2020,04,17,10,31,15.40
2020,04,17,10,32,15.50
2020,04,17,10,33,15.50
2020,04,17,10,34,15.60
2020,04,17,10,35,15.70
2020,04,17,10,36,15.70
2020,04,17,10,37,15.70
2020,04,17,10,38,15.70
2020,04,17,10,39,15.70
2020,04,17,10,40,15.70
2020,04,17,10,41,15.80
2020,04,17,10,42,15.80
2020,04,17,10,43,15.70
2020,04,17,10,44,15.70
2020,04,17,10,45,15.70
2020,04,17,10,46,15.70
2020,04,17,10,47,15.60
2020,04,17,10,48,15.50
2020,04,17,10,49,15.50
2020,04,17,10,50,15.40
2020,04,17,10,51,15.30
2020,04,17,10,52,15.30
2020,04,17,10,53,15.30
2020,04,17,10,54,15.30
2020,04,17,10,55,15.30
2020,04,17,10,56,15.30
2020,04,17,10,57,15.30
2020,04,17,10,58,15.30
2020,04,17,10,59,15.30
2020,04,17,11,00,15.30
2020,04,17,11,01,15.30
2020,04,17,11,02,15.40
2020,04,17,11,03,15.40
2020,04,17,11,04,15.30
2020,04,17,11,05,15.30
2020,04,17,11,06,15.30
2020,04,17,11,07,15.30
2020,04,17,11,08,15.30
2020,04,17,11,09,15.30
2020,04,17,11,10,15.30
2020,04,17,11,11,15.30
2020,04,17,11,12,15.30
2020,04,17,11,13,15.30
2020,04,17,11,14,15.30
2020,04,17,11,15,15.30
2020,04,17,11,16,15.30
2020,04,17,11,17,15.40
2020,04,17,11,18,15.40
2020,04,17,11,19,15.50
2020,04,17,11,20,15.50
2020,04,17,11,21,15.50
2020,04,17,11,22,15.60
2020,04,17,11,23,15.60
2020,04,17,11,24,15.70
2020,04,17,11,25,15.70
2020,04,17,11,26,15.80
2020,04,17,11,27,15.80
2020,04,17,11,28,15.80
2020,04,17,11,29,15.80
2020,04,17,11,30,15.80
2020,04,17,11,31,15.70
2020,04,17,11,32,15.70
2020,04,17,11,33,15.60
2020,04,17,11,34,15.60
2020,04,17,11,35,15.50
2020,04,17,11,36,15.50
2020,04,17,11,37,15.40
2020,04,17,11,38,15.40
2020,04,17,11,39,15.30
2020,04,17,11,40,15.30
2020,04,17,11,41,15.20
2020,04,17,11,42,15.20
2020,04,17,11,43,15.10
2020,04,17,11,44,15.10
2020,04,17,11,45,15.10
2020,04,17,11,46,15.00
2020,04,17,11,47,15.00
2020,04,17,11,48,15.00
2020,04,17,11,49,15.00
2020,04,17,11,50,15.00
2020,04,17,11,51,15.00
2020,04,17,11,52,15.00
2020,04,17,11,53,14.90
2020,04,17,11,54,14.90
2020,04,17,11,55,14.90
2020,04,17,11,56,14.90
2020,04,17,11,57,14.90
2020,04,17,11,58,14.90
2020,04,17,11,59,14.80
2020,04,17,12,00,14.80
2020,04,17,12,01,14.80
2020,04,17,12,02,14.80
2020,04,17,12,03,14.80
2020,04,17,12,04,14.80
2020,04,17,12,05,14.80
2020,04,17,12,06,14.90
2020,04,17,12,07,14.90
2020,04,17,12,08,14.80
2020,04,17,12,09,14.80
2020,04,17,12,10,14.80
2020,04,17,12,11,14.80
2020,04,17,12,12,14.70
2020,04,17,12,13,14.70
2020,04,17,12,14,14.60
2020,04,17,12,15,14.60
2020,04,17,12,16,14.50
2020,04,17,12,17,14.50
2020,04,17,12,18,14.40
2020,04,17,12,19,14.40
2020,04,17,12,20,14.40
2020,04,17,12,21,14.40
2020,04,17,12,22,14.40
2020,04,17,12,23,14.40
2020,04,17,12,24,14.50
2020,04,17,12,25,14.50
2020,04,17,12,26,14.50
2020,04,17,12,27,14.50
2020,04,17,12,28,14.50
2020,04,17,12,29,14.50
2020,04,17,12,30,14.50
2020,04,17,12,31,14.50
2020,04,17,12,32,14.50
2020,04,17,12,33,14.50
2020,04,17,12,34,14.50
2020,04,17,12,35,14.50
2020,04,17,12,36,14.50
2020,04,17,12,37,14.50
2020,04,17,12,38,14.50
2020,04,17,12,39,14.60
2020,04,17,12,40,14.60
2020,04,17,12,41,14.70
2020,04,17,12,42,14.80
2020,04,17,12,43,14.90
2020,04,17,12,44,15.00
2020,04,17,12,45,15.00
2020,04,17,12,46,15.20
2020,04,17,12,47,15.30
2020,04,17,12,48,15.30
2020,04,17,12,49,15.40
2020,04,17,12,50,15.40
2020,04,17,12,51,15.50
2020,04,17,12,52,15.60
2020,04,17,12,53,15.60
2020,04,17,12,54,15.70
2020,04,17,12,55,15.70
2020,04,17,12,56,15.70
2020,04,17,12,57,15.70
2020,04,17,12,58,15.70
2020,04,17,12,59,15.70
2020,04,17,13,00,15.60
2020,04,17,13,01,15.50
2020,04,17,13,02,15.50
2020,04,17,13,03,15.50
2020,04,17,13,04,15.50
2020,04,17,13,05,15.50
2020,04,17,13,06,15.50
2020,04,17,13,07,15.50
2020,04,17,13,08,15.50
2020,04,17,13,09,15.40
2020,04,17,13,10,15.40
2020,04,17,13,11,15.40
2020,04,17,13,12,15.40
2020,04,17,13,13,15.40
2020,04,17,13,14,15.40
2020,04,17,13,15,15.30
2020,04,17,13,16,15.30
2020,04,17,13,17,15.20
2020,04,17,13,18,15.20
2020,04,17,13,19,15.20
2020,04,17,13,20,15.20
2020,04,17,13,21,15.20
2020,04,17,13,22,15.10
2020,04,17,13,23,15.10
2020,04,17,13,24,15.00
2020,04,17,13,25,15.00
2020,04,17,13,26,14.90
2020,04,17,13,27,14.80
2020,04,17,13,28,14.80
2020,04,17,13,29,14.80
2020,04,17,13,30,14.80
2020,04,17,13,31,14.70
2020,04,17,13,32,14.60
2020,04,17,13,33,14.60
2020,04,17,13,34,14.60
2020,04,17,13,35,14.60
2020,04,17,13,36,14.60
2020,04,17,13,37,14.60
2020,04,17,13,38,14.60
2020,04,17,13,39,14.70
2020,04,17,13,40,14.70
2020,04,17,13,41,14.80
2020,04,17,13,42,14.80
2020,04,17,13,43,14.80
2020,04,17,13,44,14.80
2020,04,17,13,45,14.80
2020,04,17,13,46,14.80
2020,04,17,13,47,14.80
2020,04,17,13,48,14.80
2020,04,17,13,49,14.80
2020,04,17,13,50,14.80
2020,04,17,13,51,14.90
2020,04,17,13,52,14.90
2020,04,17,13,53,14.90
2020,04,17,13,54,15.00
2020,04,17,13,55,15.00
2020,04,17,13,56,15.00
2020,04,17,13,57,15.00
2020,04,17,13,58,15.00
2020,04,17,13,59,15.00
2020,04,17,14,00,15.00
2020,04,17,14,01,15.00
2020,04,17,14,02,15.00
2020,04,17,14,03,15.00
2020,04,17,14,04,14.90
2020,04,17,14,05,14.90
2020,04,17,14,06,14.90
2020,04,17,14,07,14.80
2020,04,17,14,08,14.80
2020,04,17,14,09,14.80
2020,04,17,14,10,14.80
2020,04,17,14,11,14.70
2020,04,17,14,12,14.70
2020,04,17,14,13,14.60
2020,04,17,14,14,14.60
2020,04,17,14,15,14.60
2020,04,17,14,16,14.60
2020,04,17,14,17,14.50
2020,04,17,14,18,14.50
2020,04,17,14,19,14.50
2020,04,17,14,20,14.40
2020,04,17,14,21,14.40
2020,04,17,14,22,14.40
2020,04,17,14,23,14.40
2020,04,17,14,24,14.40
2020,04,17,14,25,14.40
2020,04,17,14,26,14.40
2020,04,17,14,27,14.40
2020,04,17,14,28,14.50
2020,04,17,14,29,14.50
2020,04,17,14,30,14.50
2020,04,17,14,31,14.50
2020,04,17,14,32,14.60
2020,04,17,14,33,14.60
2020,04,17,14,34,14.60
2020,04,17,14,35,14.60
2020,04,17,14,36,14.60
2020,04,17,14,37,14.60
2020,04,17,14,38,14.50
2020,04,17,14,39,14.50
2020,04,17,14,40,14.40
2020,04,17,14,41,14.40
2020,04,17,14,42,14.40
2020,04,17,14,43,14.30
2020,04,17,14,44,14.30
2020,04,17,14,45,14.30
2020,04,17,14,46,14.40
2020,04,17,14,47,14.40
2020,04,17,14,48,14.50
2020,04,17,14,49,14.50
2020,04,17,14,50,14.60
2020,04,17,14,51,14.70
2020,04,17,14,52,14.70
2020,04,17,14,53,14.80
2020,04,17,14,54,14.80
2020,04,17,14,55,14.80
2020,04,17,14,56,14.80
2020,04,17,14,57,14.80
2020,04,17,14,58,14.80
2020,04,17,14,59,14.80
2020,04,17,15,00,14.80
2020,04,17,15,01,14.70
2020,04,17,15,02,14.80
2020,04,17,15,03,14.70
2020,04,17,15,04,14.70
2020,04,17,15,05,14.70
2020,04,17,15,06,14.70
2020,04,17,15,07,14.70
2020,04,17,15,08,14.70
2020,04,17,15,09,14.70
2020,04,17,15,10,14.80
2020,04,17,15,11,14.80
2020,04,17,15,12,14.80
2020,04,17,15,13,14.80
2020,04,17,15,14,14.80
2020,04,17,15,15,14.80
2020,04,17,15,16,14.80
2020,04,17,15,17,14.90
2020,04,17,15,18,14.90
2020,04,17,15,19,14.90
2020,04,17,15,20,14.90
2020,04,17,15,21,14.90
2020,04,17,15,22,14.90
2020,04,17,15,23,14.90
2020,04,17,15,24,14.90
2020,04,17,15,25,14.90
2020,04,17,15,26,14.90
2020,04,17,15,27,14.90
2020,04,17,15,28,14.90
2020,04,17,15,29,14.90
2020,04,17,15,30,14.90
2020,04,17,15,31,15.00
2020,04,17,15,32,15.00
2020,04,17,15,33,15.00
2020,04,17,15,34,14.90
2020,04,17,15,35,14.90
2020,04,17,15,36,14.90
2020,04,17,15,37,14.90
2020,04,17,15,38,14.90
2020,04,17,15,39,14.90
2020,04,17,15,40,14.80
2020,04,17,15,41,14.80
2020,04,17,15,42,14.80
2020,04,17,15,43,14.80
2020,04,17,15,44,14.80
2020,04,17,15,45,14.80
2020,04,17,15,46,14.80
2020,04,17,15,47,14.80
2020,04,17,15,48,14.80
2020,04,17,15,49,14.90
2020,04,17,15,50,14.90
2020,04,17,15,51,14.90
2020,04,17,15,52,15.00
2020,04,17,15,53,15.00
2020,04,17,15,54,15.10
2020,04,17,15,55,15.10
2020,04,17,15,56,15.20
2020,04,17,15,57,15.20
2020,04,17,15,58,15.30
2020,04,17,15,59,15.30
2020,04,17,16,00,15.30
2020,04,17,16,01,15.40
2020,04,17,16,02,15.40
2020,04,17,16,03,15.50
2020,04,17,16,04,15.50
2020,04,17,16,05,15.60
2020,04,17,16,06,15.60
2020,04,17,16,07,15.60
2020,04,17,16,08,15.60
2020,04,17,16,09,15.60
2020,04,17,16,10,15.60
2020,04,17,16,11,15.60
2020,04,17,16,12,15.60
2020,04,17,16,13,15.50
2020,04,17,16,14,15.50
2020,04,17,16,15,15.40
2020,04,17,16,16,15.30
2020,04,17,16,17,15.30
2020,04,17,16,18,15.30
2020,04,17,16,19,15.30
2020,04,17,16,20,15.20
2020,04,17,16,21,15.20
2020,04,17,16,22,15.20
2020,04,17,16,23,15.20
2020,04,17,16,24,15.20
2020,04,17,16,25,15.10
2020,04,17,16,26,15.10
2020,04,17,16,27,15.00
2020,04,17,16,28,15.00
2020,04,17,16,29,15.00
2020,04,17,16,30,14.90
2020,04,17,16,31,14.90
2020,04,17,16,32,14.90
2020,04,17,16,33,14.90
2020,04,17,16,34,14.90
2020,04,17,16,35,15.00
2020,04,17,16,36,15.00
2020,04,17,16,37,15.00
2020,04,17,16,38,15.00
2020,04,17,16,39,15.00
2020,04,17,16,40,15.00
2020,04,17,16,41,15.10
2020,04,17,16,42,15.10
2020,04,17,16,43,15.20
2020,04,17,16,44,15.20
2020,04,17,16,45,15.20
2020,04,17,16,46,15.20
2020,04,17,16,47,15.20
2020,04,17,16,48,15.20
2020,04,17,16,49,15.20
2020,04,17,16,50,15.20
2020,04,17,16,51,15.20
2020,04,17,16,52,15.20
2020,04,17,16,53,15.20
2020,04,17,16,54,15.20
2020,04,17,16,55,15.30
2020,04,17,16,56,15.30
2020,04,17,16,57,15.30
2020,04,17,16,58,15.30
2020,04,17,16,59,15.30
2020,04,17,17,00,15.40
2020,04,17,17,01,15.40
2020,04,17,17,02,15.50
2020,04,17,17,03,15.50
2020,04,17,17,04,15.50
2020,04,17,17,05,15.50
2020,04,17,17,06,15.60
2020,04,17,17,07,15.60
2020,04,17,17,08,15.60
2020,04,17,17,09,15.60
2020,04,17,17,10,15.60
2020,04,17,17,11,15.60
2020,04,17,17,12,15.60
2020,04,17,17,13,15.60
2020,04,17,17,14,15.60
2020,04,17,17,15,15.60
2020,04,17,17,16,15.60
2020,04,17,17,17,15.60
2020,04,17,17,18,15.60
2020,04,17,17,19,15.60
2020,04,17,17,20,15.60
2020,04,17,17,21,15.50
2020,04,17,17,22,15.50
2020,04,17,17,23,15.50
2020,04,17,17,24,15.50
2020,04,17,17,25,15.40
2020,04,17,17,26,15.40
2020,04,17,17,27,15.30
2020,04,17,17,28,15.30
2020,04,17,17,29,15.30
2020,04,17,17,30,15.30
2020,04,17,17,31,15.30
2020,04,17,17,32,15.30
2020,04,17,17,33,15.30
2020,04,17,17,34,15.30
2020,04,17,17,35,15.30
2020,04,17,17,36,15.30
2020,04,17,17,37,15.30
2020,04,17,17,38,15.30
2020,04,17,17,39,15.30
2020,04,17,17,40,15.30
2020,04,17,17,41,15.30
2020,04,17,17,42,15.30